CPA358 EGCC-VHHH

Flight info

Callsign CPA358
Flight time N/A
Altitude 31000
Route SONEX L975 DESIG L603 LAMSO DCT TENLI DCT KUMER DCT OMELO DCT ODLIV DCT OMIFU DCT SAGAN DCT ETNOG/N0488F330 DCT ROMAG DCT UDROS DCT CRM UM11 REBLO M11 MATAL T916 BALUN/K0907F330 T916 KUNAS/K0898F350 N193 SR L163 TISIB L141 KAMUD/K0896S1070 W186 SADAN Y1 MEPEP/K0902S1130 Y1 OMBON W245 OVRAL B330 KWE W181 DUDIT A599 POU R473 SIERA
Aircraft B77W/H-SDE1E2E3FGHIJ2J3J4J5M1RWXY/LB1D1

Departure

Time N/A
Airport Manchester Airport (EGCC)

Arrival

Time 2026-05-05 10:41
Airport Hong Kong International Airport (VHHH)
Time Latitude Longitude Altitude Speed Heading
2026-05-05 10:12 23.11793 112.25932 36957 ft 549 kts 102°
2026-05-05 10:13 23.10096 112.34011 36948 ft 549 kts 102°
2026-05-05 10:13 23.08395 112.42089 36949 ft 549 kts 102°
2026-05-05 10:14 23.06863 112.50149 36960 ft 547 kts 96°
2026-05-05 10:14 23.06252 112.58372 36964 ft 546 kts 91°
2026-05-05 10:15 23.05784 112.66605 36958 ft 546 kts 91°
2026-05-05 10:15 23.05261 112.74825 36963 ft 546 kts 92°
2026-05-05 10:16 23.04697 112.83067 36967 ft 548 kts 92°
2026-05-05 10:16 23.04126 112.91324 36962 ft 549 kts 92°
2026-05-05 10:17 23.03558 112.99555 36965 ft 549 kts 92°
2026-05-05 10:17 23.02982 113.07836 36962 ft 549 kts 94°
2026-05-05 10:18 23.02266 113.11894 36958 ft 549 kts 110°
2026-05-05 10:18 23.00599 113.15587 36975 ft 545 kts 127°
2026-05-05 10:18 22.98140 113.18670 36980 ft 539 kts 142°
2026-05-05 10:18 22.95185 113.21155 36940 ft 536 kts 153°
2026-05-05 10:19 22.91839 113.22949 36213 ft 536 kts 168°
2026-05-05 10:19 22.88282 113.24133 35515 ft 534 kts 170°
2026-05-05 10:19 22.84705 113.25239 34655 ft 535 kts 171°
2026-05-05 10:19 22.81128 113.26362 33743 ft 536 kts 170°
2026-05-05 10:20 22.77543 113.27541 32805 ft 537 kts 169°
2026-05-05 10:20 22.73996 113.28759 32196 ft 531 kts 168°
2026-05-05 10:20 22.70501 113.29982 31589 ft 525 kts 168°
2026-05-05 10:20 22.67041 113.31194 31010 ft 520 kts 168°
2026-05-05 10:21 22.63654 113.32371 30448 ft 515 kts 168°
2026-05-05 10:21 22.60255 113.33547 29840 ft 511 kts 168°
2026-05-05 10:21 22.56884 113.34714 29176 ft 507 kts 168°
2026-05-05 10:21 22.53543 113.35871 28578 ft 501 kts 168°
2026-05-05 10:22 22.50241 113.37015 27997 ft 496 kts 168°
2026-05-05 10:22 22.46972 113.38147 27419 ft 491 kts 168°
2026-05-05 10:22 22.43729 113.39268 26861 ft 486 kts 168°
2026-05-05 10:22 22.40529 113.40375 26311 ft 482 kts 167°
2026-05-05 10:23 22.37343 113.41476 25756 ft 478 kts 167°
2026-05-05 10:23 22.34199 113.42561 25203 ft 474 kts 167°
2026-05-05 10:23 22.31065 113.43643 24645 ft 471 kts 167°
2026-05-05 10:23 22.27948 113.44718 24067 ft 468 kts 167°
2026-05-05 10:24 22.24860 113.45782 23515 ft 464 kts 166°
2026-05-05 10:24 22.21787 113.46843 22889 ft 461 kts 166°
2026-05-05 10:24 22.18756 113.47923 22327 ft 457 kts 166°
2026-05-05 10:24 22.15757 113.49019 21772 ft 452 kts 165°
2026-05-05 10:25 22.12845 113.50089 21234 ft 439 kts 166°
2026-05-05 10:25 22.10021 113.51126 20718 ft 421 kts 166°
2026-05-05 10:25 22.07262 113.52130 20315 ft 412 kts 166°
2026-05-05 10:25 22.04608 113.53094 19826 ft 395 kts 166°
2026-05-05 10:26 22.02036 113.54026 19154 ft 385 kts 167°
2026-05-05 10:26 21.99479 113.54948 18513 ft 390 kts 167°
2026-05-05 10:26 21.96929 113.55930 18134 ft 388 kts 163°
2026-05-05 10:26 21.94457 113.57054 17801 ft 383 kts 161°
2026-05-05 10:27 21.92041 113.58208 17429 ft 378 kts 161°
2026-05-05 10:27 21.89647 113.59349 16994 ft 376 kts 161°
2026-05-05 10:27 21.87257 113.60473 16547 ft 374 kts 161°
2026-05-05 10:27 21.84879 113.61580 16122 ft 371 kts 161°
2026-05-05 10:28 21.82508 113.62676 15708 ft 369 kts 161°
2026-05-05 10:28 21.80162 113.63757 15318 ft 366 kts 161°
2026-05-05 10:28 21.77828 113.64831 14926 ft 363 kts 161°
2026-05-05 10:28 21.75572 113.65871 14346 ft 353 kts 161°
2026-05-05 10:29 21.73342 113.66996 13576 ft 358 kts 150°
2026-05-05 10:29 21.71557 113.68870 13253 ft 367 kts 126°
2026-05-05 10:29 21.70546 113.71406 13082 ft 375 kts 103°
2026-05-05 10:29 21.70485 113.74186 12847 ft 372 kts 79°
2026-05-05 10:30 21.71430 113.76749 12218 ft 367 kts 53°
2026-05-05 10:30 21.73138 113.78710 11643 ft 353 kts 39°
2026-05-05 10:30 21.74942 113.80416 11234 ft 337 kts 39°
2026-05-05 10:30 21.76643 113.82037 10977 ft 318 kts 39°
2026-05-05 10:31 21.78262 113.83597 10565 ft 308 kts 40°
2026-05-05 10:31 21.79819 113.85112 10212 ft 297 kts 40°
2026-05-05 10:31 21.81344 113.86601 9938 ft 296 kts 40°
2026-05-05 10:31 21.82882 113.88099 9602 ft 298 kts 39°
2026-05-05 10:32 21.84632 113.89197 9268 ft 289 kts 12°
2026-05-05 10:32 21.86596 113.89328 8997 ft 281 kts 348°
2026-05-05 10:32 21.88448 113.88731 8736 ft 278 kts 332°
2026-05-05 10:32 21.90211 113.87864 8457 ft 279 kts 330°
2026-05-05 10:33 21.94463 113.85699 7784 ft 281 kts 332°
2026-05-05 10:33 22.01132 113.82350 6817 ft 281 kts 333°
2026-05-05 10:33 22.02949 113.81443 6416 ft 277 kts 333°
2026-05-05 10:33 22.04686 113.80577 6119 ft 274 kts 332°
2026-05-05 10:34 22.06390 113.79727 5820 ft 272 kts 333°
2026-05-05 10:34 22.08103 113.78874 5542 ft 270 kts 333°
2026-05-05 10:34 22.09808 113.78025 5209 ft 270 kts 333°
2026-05-05 10:34 22.11513 113.77174 4878 ft 270 kts 333°
2026-05-05 10:35 22.13220 113.76323 4510 ft 271 kts 333°
2026-05-05 10:35 22.14934 113.75468 4146 ft 271 kts 333°
2026-05-05 10:35 22.16645 113.74613 3775 ft 271 kts 334°
2026-05-05 10:35 22.18360 113.73757 3396 ft 270 kts 334°
2026-05-05 10:36 22.20008 113.72939 3059 ft 251 kts 335°
2026-05-05 10:36 22.21560 113.72163 2619 ft 241 kts 337°
2026-05-05 10:36 22.23134 113.71815 2181 ft 224 kts 11°
2026-05-05 10:36 22.24499 113.72360 2032 ft 201 kts 34°
2026-05-05 10:37 22.25567 113.73231 1998 ft 188 kts 42°
2026-05-05 10:37 22.26552 113.74141 2004 ft 186 kts 43°
2026-05-05 10:37 22.27523 113.75068 2001 ft 185 kts 50°
2026-05-05 10:37 22.28137 113.76239 2018 ft 177 kts 68°
2026-05-05 10:38 22.28645 113.77461 2018 ft 178 kts 69°
2026-05-05 10:38 22.29095 113.78732 1821 ft 184 kts 72°
2026-05-05 10:38 22.29514 113.80021 1592 ft 179 kts 73°
2026-05-05 10:38 22.29907 113.81241 1356 ft 165 kts 72°
2026-05-05 10:39 22.30264 113.82344 1129 ft 149 kts 73°
2026-05-05 10:39 22.30587 113.83349 973 ft 139 kts 71°
2026-05-05 10:39 22.30910 113.84349 802 ft 143 kts 70°
2026-05-05 10:39 22.31232 113.85343 624 ft 139 kts 71°
2026-05-05 10:40 22.31544 113.86311 423 ft 135 kts 71°
2026-05-05 10:40 22.31854 113.87266 266 ft 136 kts 71°
2026-05-05 10:40 22.32168 113.88230 90 ft 137 kts 73°
2026-05-05 10:40 22.32460 113.89148 41 ft 114 kts 71°
2026-05-05 10:41 22.32660 113.89769 41 ft 65 kts 71°
2026-05-05 10:41 22.32788 113.90169 41 ft 56 kts 71°
2026-05-05 10:41 22.32817 113.90471 41 ft 33 kts 100°
2026-05-05 10:41 22.32783 113.90687 40 ft 26 kts 90°
2026-05-05 10:42 22.32896 113.91063 40 ft 26 kts 71°
2026-05-05 10:42 22.32955 113.91250 40 ft 26 kts 70°
2026-05-05 10:42 22.33018 113.91435 40 ft 26 kts 70°
2026-05-05 10:43 22.33075 113.91623 40 ft 26 kts 72°
2026-05-05 10:43 22.33126 113.91777 40 ft 11 kts 69°
2026-05-05 10:43 22.33153 113.91854 40 ft 11 kts 71°
2026-05-05 10:43 22.33190 113.91973 40 ft 26 kts 71°
2026-05-05 10:44 22.33177 113.92114 39 ft 16 kts 150°
2026-05-05 10:44 22.33067 113.92158 40 ft 18 kts 161°
2026-05-05 10:44 22.32931 113.92210 40 ft 23 kts 160°
2026-05-05 10:44 22.32765 113.92271 40 ft 28 kts 161°
2026-05-05 10:45 22.32574 113.92343 40 ft 30 kts 160°
2026-05-05 10:45 22.32377 113.92418 40 ft 30 kts 162°
2026-05-05 10:45 22.32247 113.92504 40 ft 17 kts 93°
2026-05-05 10:45 22.32272 113.92627 40 ft 15 kts 102°
2026-05-05 10:46 22.32189 113.92684 40 ft 17 kts 161°
2026-05-05 10:46 22.32041 113.92739 40 ft 25 kts 161°
2026-05-05 10:46 22.31883 113.92800 40 ft 25 kts 157°
2026-05-05 10:46 22.31722 113.92876 40 ft 25 kts 157°
2026-05-05 10:47 22.31582 113.92926 40 ft 11 kts 155°
2026-05-05 10:47 22.31532 113.92968 39 ft 9 kts 143°
2026-05-05 10:47 22.31482 113.92991 40 ft 6 kts 160°
2026-05-05 10:47 22.31465 113.92997 40 ft 1 kts 161°
2026-05-05 10:48 22.31458 113.92999 40 ft 0 kts 161°